• In Hungary
  • List of Countries
  • For 7 days
  • Water Temperature
  • Satellite Maps
  • Weather Map
  • News
  • Weather Widgets
  • user-avatar
    Login

    Hourly Weather Tarpon Springs

    Today, 23 October, Tuesday

    Time Temperature Precipitation Wind Pressure Humidity
    00:00 +23°C° 0 mm 5 mps 764 mmHg 74%
    01:00 +22°C° 0 mm 5 mps 764 mmHg 76%
    02:00 +22°C° 0 mm 4 mps 763 mmHg 77%
    03:00 +22°C° 0 mm 4 mps 763 mmHg 79%
    04:00 +22°C° 0 mm 4 mps 763 mmHg 79%
    05:00 +22°C° 0 mm 3 mps 764 mmHg 80%
    06:00 +21°C° 0 mm 3 mps 764 mmHg 81%
    07:00 +24°C° 0 mm 3 mps 764 mmHg 73%
    08:00 +26°C° 0 mm 3 mps 764 mmHg 65%
    09:00 +28°C° 0 mm 3 mps 764 mmHg 57%
    10:00 +29°C° 0 mm 3 mps 764 mmHg 54%
    11:00 +30°C° 0 mm 2 mps 764 mmHg 50%
    12:00 +31°C° 0 mm 2 mps 763 mmHg 46%
    13:00 +30°C° 0 mm 2 mps 763 mmHg 47%
    14:00 +30°C° 0 mm 3 mps 762 mmHg 49%
    15:00 +30°C° 0 mm 4 mps 762 mmHg 50%
    16:00 +29°C° 0.1 mm 5 mps 762 mmHg 56%
    17:00 +28°C° 0.1 mm 5 mps 762 mmHg 61%
    18:00 +27°C° 0.1 mm 6 mps 763 mmHg 67%
    19:00 +26°C° 0.1 mm 6 mps 763 mmHg 71%
    20:00 +26°C° 0.1 mm 6 mps 763 mmHg 75%
    21:00 +25°C° 0.1 mm 5 mps 763 mmHg 79%
    22:00 +25°C° 0 mm 5 mps 763 mmHg 80%
    23:00 +25°C° 0 mm 5 mps 762 mmHg 82%

    Tomorrow, 24 October, Wednesday

    Time Temperature Precipitation Wind Pressure Humidity
    00:00 +23°C° 0 mm 5 mps 762 mmHg 84%
    01:00 +23°C° 0 mm 4 mps 762 mmHg 84%
    02:00 +23°C° 0 mm 4 mps 762 mmHg 84%
    03:00 +23°C° 0 mm 4 mps 762 mmHg 85%
    04:00 +23°C° 0 mm 4 mps 762 mmHg 85%
    05:00 +23°C° 0 mm 4 mps 762 mmHg 85%
    06:00 +23°C° 0 mm 4 mps 762 mmHg 85%
    07:00 +25°C° 0 mm 4 mps 762 mmHg 80%
    08:00 +26°C° 0 mm 4 mps 763 mmHg 75%
    09:00 +27°C° 0 mm 4 mps 763 mmHg 70%
    10:00 +28°C° 0 mm 4 mps 762 mmHg 66%
    11:00 +29°C° 0 mm 4 mps 762 mmHg 62%
    12:00 +29°C° 0 mm 3 mps 761 mmHg 58%
    13:00 +30°C° 0 mm 3 mps 761 mmHg 56%
    14:00 +30°C° 0 mm 3 mps 760 mmHg 54%
    15:00 +30°C° 0 mm 3 mps 760 mmHg 53%
    16:00 +29°C° 0.1 mm 4 mps 760 mmHg 58%
    17:00 +28°C° 0.1 mm 4 mps 760 mmHg 64%
    18:00 +27°C° 0.1 mm 5 mps 761 mmHg 69%
    19:00 +26°C° 0 mm 6 mps 761 mmHg 71%
    20:00 +26°C° 0 mm 6 mps 761 mmHg 74%
    21:00 +24°C° 0 mm 7 mps 762 mmHg 76%
    22:00 +24°C° 0 mm 7 mps 761 mmHg 77%
    23:00 +24°C° 0 mm 6 mps 761 mmHg 78%

    Day after tomorrow, 25 October, Thursday

    Time Temperature Precipitation Wind Pressure Humidity
    00:00 +23°C° 0 mm 6 mps 761 mmHg 80%
    01:00 +23°C° 0 mm 6 mps 761 mmHg 81%
    02:00 +23°C° 0 mm 6 mps 760 mmHg 82%
    03:00 +23°C° 0 mm 6 mps 760 mmHg 84%
    04:00 +23°C° 0 mm 5 mps 760 mmHg 85%
    05:00 +23°C° 0 mm 5 mps 760 mmHg 85%
    06:00 +23°C° 0 mm 5 mps 760 mmHg 86%
    07:00 +25°C° 0 mm 5 mps 760 mmHg 80%
    08:00 +27°C° 0 mm 5 mps 760 mmHg 74%
    09:00 +28°C° 0 mm 5 mps 760 mmHg 68%
    10:00 +29°C° 0 mm 4 mps 760 mmHg 65%
    11:00 +30°C° 0 mm 3 mps 759 mmHg 61%
    12:00 +31°C° 0 mm 2 mps 759 mmHg 57%
    13:00 +30°C° 0.2 mm 2 mps 758 mmHg 59%
    14:00 +30°C° 0.2 mm 2 mps 758 mmHg 62%
    15:00 +29°C° 0.2 mm 2 mps 757 mmHg 64%
    16:00 +29°C° 0.2 mm 2 mps 757 mmHg 68%
    17:00 +28°C° 0.2 mm 2 mps 757 mmHg 72%
    18:00 +27°C° 0.2 mm 2 mps 757 mmHg 76%
    19:00 +27°C° 0 mm 2 mps 757 mmHg 76%
    20:00 +27°C° 0 mm 3 mps 757 mmHg 77%
    21:00 +27°C° 0 mm 3 mps 757 mmHg 77%
    22:00 +27°C° 0.2 mm 4 mps 757 mmHg 77%
    23:00 +27°C° 0.2 mm 4 mps 756 mmHg 78%

    26 October, Friday

    Time Temperature Precipitation Wind Pressure Humidity
    00:00 +27°C° 0.2 mm 5 mps 756 mmHg 78%
    01:00 +27°C° 0.3 mm 5 mps 756 mmHg 79%
    02:00 +27°C° 0.3 mm 5 mps 755 mmHg 81%
    03:00 +27°C° 0.3 mm 6 mps 755 mmHg 82%
    04:00 +27°C° 0.9 mm 6 mps 755 mmHg 83%
    05:00 +27°C° 0.9 mm 7 mps 755 mmHg 83%
    06:00 +27°C° 0.9 mm 7 mps 755 mmHg 84%
    07:00 +28°C° 1 mm 8 mps 755 mmHg 79%
    08:00 +29°C° 1 mm 9 mps 755 mmHg 74%
    09:00 +31°C° 1 mm 10 mps 755 mmHg 69%
    10:00 +31°C° 0.3 mm 9 mps 755 mmHg 68%
    11:00 +32°C° 0.3 mm 9 mps 754 mmHg 66%
    12:00 +32°C° 0.3 mm 9 mps 753 mmHg 65%
    13:00 +32°C° 0.1 mm 9 mps 753 mmHg 65%
    14:00 +31°C° 0.1 mm 9 mps 753 mmHg 65%
    15:00 +31°C° 0.1 mm 9 mps 752 mmHg 65%
    16:00 +29°C° 0.1 mm 9 mps 753 mmHg 68%
    17:00 +28°C° 0.1 mm 9 mps 753 mmHg 72%
    18:00 +28°C° 0.1 mm 8 mps 753 mmHg 75%
    19:00 +27°C° 0.2 mm 8 mps 754 mmHg 76%
    20:00 +27°C° 0.2 mm 8 mps 754 mmHg 76%
    21:00 +26°C° 0.2 mm 7 mps 754 mmHg 77%
    22:00 +26°C° 0.1 mm 7 mps 754 mmHg 77%
    23:00 +24°C° 0.1 mm 8 mps 754 mmHg 77%

    27 October, Saturday

    Time Temperature Precipitation Wind Pressure Humidity
    00:00 +24°C° 0.1 mm 8 mps 754 mmHg 77%
    01:00 +23°C° 0.1 mm 7 mps 754 mmHg 77%
    02:00 +23°C° 0.1 mm 7 mps 755 mmHg 77%
    03:00 +22°C° 0.1 mm 7 mps 755 mmHg 77%
    04:00 +22°C° 0 mm 7 mps 755 mmHg 76%
    05:00 +22°C° 0 mm 7 mps 756 mmHg 75%
    06:00 +21°C° 0 mm 7 mps 757 mmHg 75%
    07:00 +21°C° 0.1 mm 7 mps 757 mmHg 73%
    08:00 +22°C° 0.1 mm 7 mps 758 mmHg 71%
    09:00 +22°C° 0.1 mm 7 mps 758 mmHg 68%
    10:00 +22°C° 0 mm 7 mps 758 mmHg 65%
    11:00 +23°C° 0 mm 7 mps 758 mmHg 62%
    12:00 +24°C° 0 mm 7 mps 758 mmHg 59%
    13:00 +23°C° 0 mm 7 mps 758 mmHg 60%
    14:00 +23°C° 0 mm 7 mps 758 mmHg 61%
    15:00 +23°C° 0 mm 7 mps 758 mmHg 61%
    16:00 +22°C° 0 mm 7 mps 758 mmHg 62%
    17:00 +22°C° 0 mm 6 mps 759 mmHg 64%
    18:00 +21°C° 0 mm 6 mps 759 mmHg 65%
    19:00 +21°C° 0 mm 6 mps 760 mmHg 64%
    20:00 +20°C° 0 mm 6 mps 760 mmHg 64%
    21:00 +20°C° 0 mm 5 mps 760 mmHg 63%
    22:00 +19°C° 0 mm 5 mps 760 mmHg 64%
    23:00 +19°C° 0 mm 5 mps 760 mmHg 65%

    28 October, Sunday

    Time Temperature Precipitation Wind Pressure Humidity
    00:00 +18°C° 0 mm 4 mps 760 mmHg 66%
    01:00 +18°C° 0 mm 4 mps 761 mmHg 67%
    02:00 +17°C° 0 mm 4 mps 761 mmHg 69%
    03:00 +17°C° 0 mm 3 mps 761 mmHg 70%
    04:00 +17°C° 0 mm 3 mps 761 mmHg 71%
    05:00 +16°C° 0 mm 3 mps 762 mmHg 72%
    06:00 +16°C° 0 mm 3 mps 762 mmHg 73%
    07:00 +18°C° 0 mm 2 mps 763 mmHg 68%
    08:00 +20°C° 0 mm 2 mps 763 mmHg 63%
    09:00 +21°C° 0 mm 2 mps 764 mmHg 59%
    10:00 +24°C° 0 mm 2 mps 763 mmHg 55%
    11:00 +25°C° 0 mm 3 mps 763 mmHg 51%
    12:00 +26°C° 0 mm 3 mps 762 mmHg 48%
    13:00 +26°C° 0 mm 4 mps 762 mmHg 48%
    14:00 +27°C° 0 mm 4 mps 762 mmHg 49%
    15:00 +27°C° 0 mm 5 mps 761 mmHg 49%
    16:00 +26°C° 0 mm 5 mps 762 mmHg 53%
    17:00 +25°C° 0 mm 5 mps 762 mmHg 57%
    18:00 +25°C° 0 mm 5 mps 762 mmHg 61%
    19:00 +23°C° 0 mm 4 mps 763 mmHg 63%
    20:00 +23°C° 0 mm 4 mps 763 mmHg 65%
    21:00 +23°C° 0 mm 4 mps 763 mmHg 67%
    22:00 +23°C° 0 mm 4 mps 763 mmHg 67%
    23:00 +24°C° 0 mm 3 mps 763 mmHg 67%

    29 October, Monday

    Time Temperature Precipitation Wind Pressure Humidity
    00:00 +24°C° 0 mm 3 mps 762 mmHg 67%
    01:00 +23°C° 0 mm 4 mps 762 mmHg 67%
    02:00 +23°C° 0 mm 4 mps 762 mmHg 67%
    03:00 +23°C° 0 mm 4 mps 762 mmHg 67%
    04:00 +23°C° 0 mm 4 mps 762 mmHg 68%
    05:00 +23°C° 0 mm 4 mps 762 mmHg 70%
    06:00 +23°C° 0 mm 4 mps 763 mmHg 71%
    07:00 +25°C° 0 mm 5 mps 763 mmHg 66%
    08:00 +27°C° 0 mm 5 mps 763 mmHg 61%
    09:00 +29°C° 0 mm 5 mps 763 mmHg 56%
    10:00 +29°C° 0 mm 6 mps 763 mmHg 55%
    11:00 +30°C° 0 mm 6 mps 762 mmHg 54%
    12:00 +30°C° 0 mm 6 mps 762 mmHg 53%
    13:00 +30°C° 0 mm 7 mps 761 mmHg 55%
    14:00 +29°C° 0 mm 7 mps 761 mmHg 57%
    15:00 +29°C° 0 mm 7 mps 761 mmHg 59%
    16:00 +28°C° 0.2 mm 7 mps 761 mmHg 63%
    17:00 +27°C° 0.2 mm 7 mps 761 mmHg 67%
    18:00 +26°C° 0.2 mm 6 mps 761 mmHg 71%
    Show more